MSR989 HEAX-HECA

Flight info

Callsign MSR989
Flight time 0h 40m
Altitude 19000
Route ALPAM V604 NOZ L617 CVO
Aircraft A20N/M-SDE2E3FGHIRWXY/LB1

Departure

Time 2026-04-23 17:08
Airport Alexandria International Airport (HEAX)

Arrival

Time 2026-04-23 17:49
Airport Cairo International Airport (HECA)
Time Latitude Longitude Altitude Speed Heading
2026-04-23 16:52 31.19078 29.95144 5 ft 0 kts
2026-04-23 17:03 31.19079 29.95144 5 ft 1 kts
2026-04-23 17:03 31.19117 29.95110 5 ft 16 kts 283°
2026-04-23 17:03 31.19106 29.94980 5 ft 12 kts 242°
2026-04-23 17:04 31.19091 29.94956 5 ft 0 kts 231°
2026-04-23 17:04 31.19072 29.94930 5 ft 18 kts 226°
2026-04-23 17:04 31.18851 29.94889 6 ft 40 kts 182°
2026-04-23 17:05 31.18618 29.94891 6 ft 29 kts 182°
2026-04-23 17:05 31.18525 29.94889 7 ft 0 kts 180°
2026-04-23 17:05 31.18506 29.94889 7 ft 11 kts 180°
2026-04-23 17:06 31.18359 29.94847 8 ft 30 kts 223°
2026-04-23 17:06 31.18192 29.94648 7 ft 40 kts 226°
2026-04-23 17:06 31.17976 29.94399 6 ft 45 kts 221°
2026-04-23 17:06 31.17788 29.94184 9 ft 41 kts 227°
2026-04-23 17:07 31.17596 29.93944 11 ft 36 kts 229°
2026-04-23 17:07 31.17510 29.93804 10 ft 7 kts 211°
2026-04-23 17:07 31.17494 29.93826 9 ft 9 kts 90°
2026-04-23 17:07 31.17529 29.93885 9 ft 23 kts 41°
2026-04-23 17:08 31.17922 29.94338 7 ft 137 kts 45°
2026-04-23 17:08 31.18761 29.95309 538 ft 186 kts 42°
2026-04-23 17:08 31.19741 29.96440 1623 ft 213 kts 43°
2026-04-23 17:08 31.20693 29.97947 2370 ft 251 kts 69°
2026-04-23 17:09 31.20767 30.00027 3316 ft 268 kts 107°
2026-04-23 17:09 31.19770 30.01847 4470 ft 272 kts 142°
2026-04-23 17:09 31.18055 30.02720 5659 ft 273 kts 176°
2026-04-23 17:09 31.16186 30.02443 6878 ft 274 kts 197°
2026-04-23 17:10 31.14279 30.02174 8114 ft 283 kts 175°
2026-04-23 17:10 31.12434 30.03030 9126 ft 295 kts 145°
2026-04-23 17:10 31.11133 30.04902 9710 ft 304 kts 115°
2026-04-23 17:10 31.10651 30.07313 9895 ft 308 kts 95°
2026-04-23 17:11 31.10567 30.09814 9916 ft 311 kts 89°
2026-04-23 17:11 31.10591 30.12446 9908 ft 326 kts 89°
2026-04-23 17:11 31.10569 30.15049 10125 ft 321 kts 91°
2026-04-23 17:11 31.10459 30.17737 10479 ft 347 kts 94°
2026-04-23 17:12 31.10247 30.20627 11235 ft 365 kts 96°
2026-04-23 17:12 31.09961 30.23609 12292 ft 374 kts 97°
2026-04-23 17:12 31.09707 30.25960 13170 ft 380 kts 98°
2026-04-23 17:13 31.07628 30.31669 15162 ft 390 kts 129°
2026-04-23 17:13 31.05879 30.34066 16132 ft 396 kts 135°
2026-04-23 17:13 31.03896 30.36379 17112 ft 401 kts 139°
2026-04-23 17:13 31.01864 30.38569 18036 ft 406 kts 141°
2026-04-23 17:14 30.99755 30.40785 18617 ft 410 kts 141°
2026-04-23 17:14 30.97634 30.43015 18866 ft 412 kts 141°
2026-04-23 17:14 30.95514 30.45272 18918 ft 414 kts 140°
2026-04-23 17:14 30.93398 30.47553 18919 ft 415 kts 140°
2026-04-23 17:15 30.91284 30.49855 18918 ft 416 kts 140°
2026-04-23 17:15 30.89176 30.52164 18916 ft 416 kts 140°
2026-04-23 17:15 30.87071 30.54475 18917 ft 416 kts 140°
2026-04-23 17:15 30.84995 30.56755 18917 ft 416 kts 140°
2026-04-23 17:16 30.82885 30.59071 18907 ft 416 kts 139°
2026-04-23 17:16 30.80779 30.61378 18915 ft 416 kts 139°
2026-04-23 17:16 30.78674 30.63682 18914 ft 415 kts 139°
2026-04-23 17:16 30.76574 30.65979 18914 ft 415 kts 139°
2026-04-23 17:17 30.74467 30.68280 18915 ft 415 kts 140°
2026-04-23 17:17 30.72362 30.70578 18914 ft 415 kts 140°
2026-04-23 17:17 30.70969 30.72098 18914 ft 415 kts 140°
2026-04-23 17:17 30.68154 30.75167 18913 ft 415 kts 140°
2026-04-23 17:18 30.63972 30.79722 18914 ft 415 kts 140°
2026-04-23 17:18 30.61866 30.82014 18913 ft 415 kts 140°
2026-04-23 17:18 30.59762 30.84302 18913 ft 415 kts 140°
2026-04-23 17:19 30.57654 30.86593 18914 ft 415 kts 140°
2026-04-23 17:19 30.55548 30.88881 18911 ft 415 kts 140°
2026-04-23 17:19 30.53439 30.91170 18911 ft 415 kts 140°
2026-04-23 17:19 30.51331 30.93457 18911 ft 415 kts 140°
2026-04-23 17:20 30.49223 30.95742 18914 ft 415 kts 140°
2026-04-23 17:20 30.45036 31.00277 18906 ft 414 kts 139°
2026-04-23 17:21 30.40855 31.04803 17885 ft 409 kts 139°
2026-04-23 17:21 30.38753 31.07073 16593 ft 417 kts 139°
2026-04-23 17:21 30.34469 31.11695 14384 ft 420 kts 139°
2026-04-23 17:22 30.32346 31.13987 13469 ft 415 kts 139°
2026-04-23 17:22 30.28247 31.18411 12206 ft 389 kts 139°
2026-04-23 17:23 30.24478 31.22478 11669 ft 353 kts 139°
2026-04-23 17:23 30.22729 31.24362 11434 ft 333 kts 139°
2026-04-23 17:23 30.19498 31.27837 10445 ft 308 kts 139°
2026-04-23 17:24 30.17936 31.29512 9786 ft 305 kts 139°
2026-04-23 17:24 30.16394 31.31164 9060 ft 301 kts 139°
2026-04-23 17:24 30.13398 31.34373 7725 ft 291 kts 138°
2026-04-23 17:25 30.09917 31.36449 6335 ft 283 kts 175°
2026-04-23 17:25 30.07989 31.36206 5603 ft 279 kts 201°
2026-04-23 17:26 30.05072 31.33390 4931 ft 277 kts 230°
2026-04-23 17:26 30.02588 31.30052 4911 ft 276 kts 230°
2026-04-23 17:27 30.00304 31.26521 4908 ft 274 kts 250°
2026-04-23 17:27 30.00004 31.24390 4970 ft 270 kts 275°
2026-04-23 17:27 30.00568 31.22361 4977 ft 266 kts 302°
2026-04-23 17:27 30.01815 31.20859 4563 ft 258 kts 328°
2026-04-23 17:28 30.03491 31.20178 3770 ft 259 kts 354°
2026-04-23 17:28 30.05260 31.20432 3080 ft 257 kts 20°
2026-04-23 17:28 30.06711 31.21507 2641 ft 247 kts 44°
2026-04-23 17:28 30.07605 31.23100 2497 ft 228 kts 68°
2026-04-23 17:29 30.07881 31.24811 2499 ft 209 kts 88°
2026-04-23 17:29 30.07626 31.26416 2491 ft 202 kts 108°
2026-04-23 17:29 30.05793 31.28861 2488 ft 209 kts 149°
2026-04-23 17:30 30.04940 31.29376 2490 ft 209 kts 150°
2026-04-23 17:30 30.04024 31.32467 2529 ft 181 kts 54°
2026-04-23 17:30 30.04814 31.33489 2497 ft 166 kts 41°
2026-04-23 17:31 30.05647 31.34407 2498 ft 165 kts 41°
2026-04-23 17:31 30.06469 31.35313 2288 ft 162 kts 42°
2026-04-23 17:31 30.07247 31.36255 1950 ft 162 kts 46°
2026-04-23 17:31 30.07976 31.37243 1452 ft 161 kts 47°
2026-04-23 17:32 30.08725 31.38211 938 ft 162 kts 45°
2026-04-23 17:32 30.09472 31.39172 531 ft 155 kts 47°
2026-04-23 17:32 30.10143 31.40056 419 ft 147 kts 45°
2026-04-23 17:32 30.10972 31.41129 776 ft 206 kts 46°
2026-04-23 17:33 30.12012 31.42490 1167 ft 243 kts 47°
2026-04-23 17:33 30.13191 31.44053 1629 ft 279 kts 49°
2026-04-23 17:33 30.14513 31.45839 2134 ft 292 kts 49°
2026-04-23 17:33 30.15690 31.47468 2509 ft 237 kts 49°
2026-04-23 17:34 30.16620 31.48801 2727 ft 194 kts 50°
2026-04-23 17:34 30.17314 31.50076 2743 ft 186 kts 71°
2026-04-23 17:34 30.16378 31.52632 2502 ft 193 kts 150°
2026-04-23 17:35 30.15068 31.52996 2495 ft 196 kts 173°
2026-04-23 17:35 30.12798 31.53064 2500 ft 196 kts 177°
2026-04-23 17:35 30.10994 31.53075 2487 ft 195 kts 178°
2026-04-23 17:36 30.09640 31.52965 2493 ft 197 kts 197°
2026-04-23 17:36 30.08462 31.52178 2491 ft 197 kts 220°
2026-04-23 17:36 30.07428 31.51142 2504 ft 196 kts 224°
2026-04-23 17:36 30.06426 31.50084 2494 ft 195 kts 224°
2026-04-23 17:37 30.05435 31.49014 2489 ft 195 kts 225°
2026-04-23 17:37 30.04441 31.47946 2494 ft 195 kts 225°
2026-04-23 17:37 30.02796 31.46183 2497 ft 194 kts 224°
2026-04-23 17:38 30.01492 31.44772 2489 ft 194 kts 225°
2026-04-23 17:38 30.00505 31.43711 2499 ft 194 kts 224°
2026-04-23 17:38 29.99521 31.42645 2490 ft 194 kts 225°
2026-04-23 17:38 29.98543 31.41584 2490 ft 193 kts 225°
2026-04-23 17:39 29.97894 31.40882 2493 ft 193 kts 225°
2026-04-23 17:39 29.96914 31.39825 2492 ft 193 kts 225°
2026-04-23 17:39 29.95604 31.38419 2492 ft 193 kts 225°
2026-04-23 17:39 29.94953 31.37720 2499 ft 193 kts 224°
2026-04-23 17:40 29.93648 31.36328 2488 ft 194 kts 225°
2026-04-23 17:40 29.90457 31.32937 2486 ft 193 kts 224°
2026-04-23 17:40 29.89788 31.32229 2492 ft 194 kts 225°
2026-04-23 17:40 29.88795 31.31184 2489 ft 193 kts 224°
2026-04-23 17:41 29.87243 31.29511 2499 ft 192 kts 232°
2026-04-23 17:41 29.87180 31.26781 2494 ft 178 kts 313°
2026-04-23 17:41 29.88161 31.25941 2504 ft 176 kts 331°
2026-04-23 17:42 29.90324 31.24593 2489 ft 176 kts 334°
2026-04-23 17:42 29.91412 31.23934 2496 ft 177 kts 334°
2026-04-23 17:42 29.92505 31.23277 2500 ft 178 kts 334°
2026-04-23 17:43 29.93641 31.22800 2487 ft 177 kts 355°
2026-04-23 17:43 29.94866 31.22948 2491 ft 178 kts 12°
2026-04-23 17:43 29.96063 31.23294 2497 ft 176 kts 14°
2026-04-23 17:43 29.97230 31.23682 2491 ft 174 kts 20°
2026-04-23 17:44 29.98273 31.24385 2501 ft 175 kts 37°
2026-04-23 17:44 29.99141 31.25364 2500 ft 174 kts 46°
2026-04-23 17:44 30.00729 31.27478 2503 ft 174 kts 46°
2026-04-23 17:45 30.01519 31.28532 2497 ft 174 kts 47°
2026-04-23 17:45 30.03040 31.30558 2475 ft 164 kts 47°
2026-04-23 17:45 30.03784 31.31547 2292 ft 163 kts 47°
2026-04-23 17:46 30.05263 31.33523 1848 ft 163 kts 46°
2026-04-23 17:46 30.05999 31.34505 1630 ft 159 kts 47°
2026-04-23 17:46 30.06692 31.35432 1430 ft 148 kts 47°
2026-04-23 17:47 30.07340 31.36309 1222 ft 140 kts 49°
2026-04-23 17:47 30.07937 31.37167 1001 ft 134 kts 48°
2026-04-23 17:47 30.09118 31.38710 615 ft 125 kts 45°
2026-04-23 17:48 30.09690 31.39462 487 ft 124 kts 45°
2026-04-23 17:48 30.10257 31.40211 386 ft 124 kts 46°
2026-04-23 17:48 30.10730 31.40837 378 ft 64 kts 49°
2026-04-23 17:48 30.11003 31.41200 378 ft 56 kts 47°
2026-04-23 17:49 30.11253 31.41517 378 ft 45 kts 38°
2026-04-23 17:49 30.11423 31.41605 378 ft 22 kts 20°
2026-04-23 17:49 30.11474 31.41623 378 ft 0 kts 12°
2026-04-23 17:50 30.11492 31.41626 378 ft 4 kts
2026-04-23 17:50 30.11544 31.41611 378 ft 11 kts 315°
2026-04-23 17:51 30.11528 31.41500 378 ft 20 kts 229°
2026-04-23 17:51 30.11419 31.41356 378 ft 23 kts 229°
2026-04-23 17:51 30.11204 31.41070 378 ft 24 kts 229°
2026-04-23 17:52 30.11097 31.40926 378 ft 19 kts 230°
2026-04-23 17:52 30.11018 31.40664 378 ft 22 kts 228°
2026-04-23 17:52 30.10900 31.40506 377 ft 30 kts 230°
2026-04-23 17:53 30.10713 31.40260 377 ft 22 kts 230°
2026-04-23 17:53 30.10598 31.40106 377 ft 15 kts 229°
2026-04-23 17:53 30.10535 31.40022 377 ft 19 kts 229°
2026-04-23 17:54 30.10499 31.39894 377 ft 15 kts 295°
2026-04-23 17:54 30.10534 31.39835 377 ft 2 kts 328°
2026-04-23 17:54 30.10684 31.39806 377 ft 7 kts 340°
2026-04-23 17:55 30.10688 31.39805 377 ft 1 kts 342°
2026-04-23 17:55 30.10726 31.39795 377 ft 11 kts 347°
2026-04-23 17:55 30.10820 31.39768 377 ft 13 kts 345°
2026-04-23 17:56 30.10853 31.39762 377 ft 0 kts 14°
2026-04-23 17:56 30.10856 31.39839 377 ft 5 kts 89°
2026-04-23 17:56 30.10859 31.39857 377 ft 0 kts 76°